Location: Moscow
(55.7500°N, 37.5830°E)
Time: 06:31:56
(UTC+03:00)

Transit 4A - Pass Details

Date: 02 December 2021
Orbit: 863 x 981 km, 66.8° (Epoch: 26 January)

Event Time Altitude Azimuth Distance (km) Brightness Sun altitude
Exits shadow 04:17:54 34° 138° (SE) 1,535 9.1 -34.9°
Drops below altitude 10° 04:21:17 10° 139° (SE) 2,711 10.6 -34.4°
Sets 04:23:52 0° 139° (SE) 3,665 11.4 -34.1°
